www.pogodaiklimat.ru

Погода и климат >> Архив погоды >> Мексика >> Chilpancingo


ПОГОДА в Chilpancingo

  • Прогноз погоды в Chilpancingo
  • Монитор погоды в Chilpancingo
  • Климат города

АРХИВ ПОГОДЫ в Chilpancingo

Время (UTC), дата Ветер
(напр.,м/с)
 
Видим.   Явления Облачность Т
(С)
Тd
(С)
f
(%)
Тe
(С)
Тes
(С)
Комфортность P
(гПа)
Po
(гПа)
Тmin
(С)
Tmax
(С)
R
(мм)
R24
(мм)
S
(см)
06 17.06 ЮВ 4 400 м слабый дождь {морось} 9/5 100 м
[St Ac As]
+18.6 +17.5 93 +19 +19 1011.4 875.4 0.6
09 17.06 ЮЗ 5 400 м слабая морось 10/3 180 м
[Frnb Ac As]
+18.0 +17.7 98 +18 +18 1011.1 874.6 1
12 17.06 ЮЗ 4 400 м слабая морось 10/0 1500 м
[As op]
+18.0 +17.7 98 +18 +18 1012.1 875.1 1
15 17.06 Ю 7 400 м туман местами 9/5 420 м
[St Ac As]
+21.8 +18.4 81 +27 +27 душно 1012.6 875.5
18 17.06 ЮВ 6 400 м 9/5 660 м
[Sc diur, vesp Ac cuf]
+24.0 +18.7 72 +29 +31 душно 1012.4 875.7 +18.0 +24.2
21 17.06 ЮВ 1 400 м туман местами 9/5 500 м
[Cu Sc Ac trans]
+22.8 +18.6 77 +29 +33 очень
душно
1010.7 874.9
00 18.06 ЮВ 1 400 м туман местами 9/6 300 м
[Cu Sc Ac trans]
+20.2 +17.3 83 +24 +25 комфорт 1009.8 874.5 +18.0 +24.8
03 18.06 Ю 1 400 м туман местами 4/4 210 м
[Sc]
+19.2 +17.3 89 +22 +22 комфорт 1011.8 876.2
06 18.06 В 1 400 м туман местами 8/8 150 м
[Sc]
+18.4 +17.2 93 +20 +20 1013.5 877.1 +24.8
09 18.06 ЮВ 1 400 м туман местами 8/8 210 м
[Sc]
+18.4 +16.7 90 +20 +20 1012.8 876.0
12 18.06 ЮВ 1 400 м туман местами 8/8 210 м
[Sc]
+18.4 +16.7 90 +20 +20 1013.5 876.2 +18.4 +24.8
15 18.06 ЮВ 1 400 м туман местами 9/5 210 м
[Sc Ac trans]
+19.2 +17.6 90 +22 +25 комфорт 1015.3 877.7
18 18.06 ЮВ 1 400 м туман местами 9/5 540 м
[Cu Sc Ac trans]
+21.4 +17.1 76 +25 +32 комфорт 1015.2 877.9 +18.4 +22.2
21 18.06 ЮВ 1 400 м туман местами 9/6 360 м
[Cu Sc Ac trans]
+20.8 +18.0 84 +26 +30 душно 1013.1 876.3
00 19.06 Ю 1 400 м туман местами 9/6 300 м
[Cu Sc Ac trans]
+20.4 +17.8 85 +25 +25 комфорт 1012.3 875.9 +18.4 +22.2
03 19.06 Ю 1 400 м туман местами 8/5 240 м
[Sc Ac trans]
+19.4 +17.4 88 +23 +23 комфорт 1012.8 876.4
06 19.06 ЮВ 1 400 м туман местами 4/4 120 м
[St]
+18.6 +17.7 95 +21 +21 комфорт 1015.2 878.2 +18.4 +22.2
09 19.06 ЮВ 1 400 м туман местами 8/8 120 м
[Sc]
+18.4 +17.5 94 +20 +20 1012.3 876.6
12 19.06 Ю 1 400 м туман местами 8/8 180 м
[Sc]
+18.4 +17.0 92 +20 +20 1014.6 877.2 +18.4 +22.2
15 19.06 З 4 400 м 8/8 500 м
[Cu med, cong]
+21.7 +17.7 78 +26 +27 душно 1014.8 877.5
18 19.06 З 4 400 м 6/0 1500 м
[Ac trans]
+26.6 +21.2 72 +34 +43 очень
душно
1013.4 877.0 +18.4 +26.8
21 19.06 В 5 400 м 6/0 1500 м
[Ac trans]
+27.8 +22.4 72 +23 +28 комфорт 1011.0 875.8
00 20.06 ЮВ 3 400 м 8/0 1500 м
[Ac As]
+24.2 +21.6 85 +31 +31 очень
душно
1009.2 875.0 +18.4 +27.8
03 20.06 ЮЗ 4 400 м 3/3 180 м
[Cu med, cong]
+20.8 +19.4 92 +25 +25 комфорт 1010.9 876.6
06 20.06 ЮЗ 2 400 м 1/1 100 м
[Cu med, cong]
+19.0 +18.0 94 +21 +21 комфорт 1013.2 878.0 +18.4 +27.8
09 20.06 ЮЗ 2 400 м ясно +17.6 +16.1 91 +18 +18 1013.0 876.9
12 20.06 штиль 0 400 м 6/0 1500 м
[Ac As]
+16.0 +15.4 96 +16 +16 1014.0 876.7 +15.7 +27.8
15 20.06 ЮЗ 1 400 м 8/0 1500 м
[Ac As]
+20.0 +16.8 82 +24 +28 комфорт 1015.1 877.3
18 20.06 ЮЗ 2 400 м 8/8 420 м
[Sc diur, vesp]
+27.6 +24.1 81 +38 +43 очень
душно
1013.7 876.7 +15.7 +27.8
21 20.06 В 2 400 м 6/5 400 м
[Sc diur, vesp Ci]
+29.6 +26.6 84 +46 +53 опасность
перегрева
1010.4 875.1
00 21.06 В 5 400 м 8/8 200 м
[Sc diur, vesp]
+25.5 +23.8 90 +35 +35 очень
душно
1008.5 874.5 +15.7 +30.0
03 21.06 Ю 2 400 м 4/4 120 м
[Sc diur, vesp]
+22.4 +21.3 94 +29 +29 очень
душно
1008.7 875.3
06 21.06 ЮВ 2 400 м 3/1 100 м
[Sc diur, vesp Ac trans]
+20.8 +20.0 95 +26 +26 душно 1010.4 876.3 +15.7 +30.0
09 21.06 ЮВ 3 400 м туман местами 4/4 120 м
[St]
+20.2 +19.4 95 +24 +24 комфорт 1010.9 875.9
12 21.06 Ю 2 400 м туман местами 6/6 120 м
[Sc diur, vesp]
+19.9 +18.9 94 +24 +24 комфорт 1011.8 875.8 +19.8 +30.0
15 21.06 Ю 4 400 м туман местами 4/1 330 м
[Cu med, cong Ci]
+23.1 +20.5 85 +30 +35 очень
душно
1012.5 876.3
18 21.06 ЮВ 3 400 м 8/5 240 м
[Sc diur, vesp Ac trans]
+27.6 +25.7 89 +41 +46 опасность
перегрева
1011.5 875.9 +19.8 +28.0
21 21.06 СЗ 1 400 м в посл. час гроза {дождь} туман 8/8 420 м
[Cb calv]
+24.0 +20.7 82 +30 +34 очень
душно
1008.8 874.2 3
00 22.06 ЮВ 3 400 м в посл. час гроза {дождь, морось} 10/10 200 м
[Cb calv]
+21.5 +19.1 86 +26 +26 душно 1009.3 874.9 4
03 22.06 Ю 3 400 м слабый дождь {морось} 10/6 270 м
[Sc diur, vesp As op]
+19.6 +17.3 87 +22 +22 комфорт 1011.6 876.7 0.7
06 22.06 ЮВ 1 400 м слабый дождь {морось} 10/10 100 м
[Sc diur, vesp]
+19.2 +17.8 92 +22 +22 комфорт 1013.8 877.5 0.9
09 22.06 СЗ 2 400 м 4/0
[As trans]
+18.6 +17.7 95 +20 +20 1013.1 876.5
12 22.06 СЗ 1 400 м туман на расстоянии 8/8 120 м
[St]
+18.4 +17.5 94 +20 +20 1013.4 876.2 +18.3 +28.6
15 22.06 СЗ 2 400 м 3/3 500 м
[Cu med, cong]
+22.2 +18.0 77 +27 +33 душно 1014.4 877.2
18 22.06 ЮЗ 1 400 м 5/3 1300 м
[Cu med, cong Ac trans]
+28.8 +18.4 53 +34 +48 очень
душно
1012.6 876.5 +18.3 +29.0
21 22.06 Ю 8 400 м 9/9 1230 м
[Cu med, cong]
+29.0 +19.1 55 +34 +35 очень
душно
1009.2 874.7
00 23.06 В 3 400 м туман на расстоянии {дождь} 10/6 300 м
[Sc diur, vesp As op]
+21.8 +18.4 81 +27 +27 душно 1009.7 875.5 0.0
03 23.06 Ю 4 400 м туман местами 10/5 540 м
[St Ac As]
+20.0 +17.1 83 +23 +23 комфорт 1011.2 876.8
06 23.06 СВ 2 400 м туман местами 10/0 1500 м
[Ac As]
+19.4 +17.4 88 +22 +22 комфорт 1012.6 877.3 +18.3 +30.0
09 23.06 СЗ 2 400 м туман на расстоянии 9/5 300 м
[St Ac As]
+19.4 +17.1 87 +22 +22 комфорт 1012.6 876.2
12 23.06 ЮВ 1 400 м туман на расстоянии 10/5 270 м
[Sc Ac As]
+19.2 +17.0 87 +22 +22 комфорт 1013.4 876.5 +19.0 +30.0
15 23.06 СЗ 3 400 м 5/1 480 м
[Cu hum Ac trans]
+22.1 +18.1 78 +27 +32 душно 1014.4 877.5
18 23.06 СЗ 3 400 м 1/1 1260 м
[Cu hum]
+28.8 +18.6 54 +34 +50 очень
душно
1012.3 876.4 +19.0 +29.3
21 23.06 ЮВ 4 400 м 6/6 1260 м
[Cu Sc]
+29.5 +19.4 55 +35 +40 очень
душно
1008.2 873.9
00 24.06 В 2 400 м туман на расстоянии {гроза, морось} 9/3 100 м
[Cu med, cong Ac As]
+20.6 +18.3 87 +25 +26 комфорт 1009.2 875.1 1

 

Местоположение метеостанции Chilpancingo (Мексика): широта 17.55 долгота -99.50 высота над уровнем моря 1265 м.

В архиве по умолчанию представлена погода в Chilpancingo за последнюю неделю. Архивные данные за месяц целиком и за предыдущие месяцы, начиная с января 2011 года, Вы можете получить, выбрав интересующий диапазон дат из раскрывающегося списка и нажав кнопку "Ввод!".


*Определитесь, кто Вы:
робот инопланетянин человек

Внимание! Время в таблицах - всемирное. Для получения местного времени необходимо прибавить поправку, которая в Chilpancingo равна -6 ч.

Смотрите также архив погоды в соседних городах и на ближайших метеорологических станциях:

Погода в Acapulco (Мексика) (92 км)
Погода в Zacatepec (Мексика) (133 км)
Погода в Cuernavaca (Мексика) (151 км)
Погода в Huajuapan De Leon (Мексика) (185 км)
Погода в Toluca (Мексика) (193 км)
Погода в Institute of Geography (Мексика) (200 км)
Погода в Mexico City (Мексика) (209 км)
Погода в Puebla (Мексика) (219 км)
Погода в Tlaxcala Airport (Мексика) (237 км)
Погода в Tlaxcala (Мексика) (237 км)

Пояснения к столбцам:

Ветер - указаны скорость ветра в м/с - средняя за 10 мин, порывы в срок и между сроками (в фигурных скобках) и направление, откуда дует ветер: С - северный, СВ - северо-восточный, В - восточный, ЮВ - юго-восточный, Ю - южный, ЮЗ - юго-западный, З - западный, СЗ - северо-западный.
Видимость - горизонтальная дальность видимости в метрах или километрах. При видимости от 1 до 10 км при отсутствии осадков обычно наблюдается дымка, при ухудшении видимости до 1 км и менее - туман. В сухую погоду видимость может ухудшаться дымом, пылью или мглою.
Явления - указаны атмосферные явления, наблюдавшиеся в срок или в последний час перед сроком; фигурными скобками обозначены явления, наблюдавшиеся между сроками (за 1-3 часа до срока); квадратными скобками обозначены град или гололедные отложения с указанием их диаметра в мм.
Облачность - указаны через наклонную черту общая и нижняя облачность в баллах и высота нижней границы облаков в метрах; квадратными скобками обозначены формы облаков: Ci - перистые, Cs - перисто-слоистые, Cc - перисто-кучевые, Ac - высококучевые, As - высокослоистые, Sc - слоисто-кучевые, Ns - слоисто-дождевые, Cu - кучевые, Cb - кучево-дождевые. Подробнее классификацию облаков см. в Атласе облаков (PDF).
T - Температура воздуха - температура, измеренная на высоте 2 м над землей.
Td - Температура точки росы - температура, при понижении до которой содержащийся в воздухе водяной пар достигнет насыщения.
f - Относительная влажность воздуха - влажноcть воздуха, измеренная на высоте 2 м над землей.
Te - Эффективная температура - температура, которую ощущает одетый по сезону человек в тени. Характеристика душности погоды. При расчете учитывается влияние влажности воздуха и скорости ветра на теплоощущения человека.
Tes - Эффективная температура на солнце - температура, которую ощущает человек, с поправкой на солнечный нагрев. Характеристика знойности погоды. Зависит от высоты солнца над горизонтом, облачности и скорости ветра. Ночью, в пасмурную погоду, а также при ветре 12 м/с и более поправка равна нулю.
P - Атмосферное давление - приведенное к уровню моря атмосферное давление.
Po - Атмосферное давление - измеренное на уровне метеостанции атмосферное давление.
Tmin - Минимальная температура - минимум температуры воздуха на высоте 2 м над землей.
Tmax - Максимальная температура - максимум температуры воздуха на высоте 2 м над землей.
R - Количество осадков - Количество выпавших осадков за период времени, мм. При наведении курсора мыши на число - период времени, за который выпало указанное количество осадков.
R24 - Количество осадков - Количество выпавших осадков за 24 часа, мм.
S - Снежный покров - Высота снежного покрова, см. При наведении курсора мыши на число - состояние снежного покрова и степень покрытия местности в баллах.